Saint Martin Island, Guadeloupe

5:16 AM AST on May 23, 2017 (GMT -0400)
Saint Martin Island

Weather History for 78866 - May, 2014

Change the Weather History Date:

Tuesday, May 20, 2014

  Actual Average Record
Temperature  
Mean Temperature 82 °F -  
Max Temperature 85 °F 85 °F - ()
Min Temperature 79 °F 76 °F - ()
Cooling Degree Days 17    
Growing Degree Days 32 (Base 50)    
Moisture  
Dew Point 73 °F    
Average Humidity 74    
Maximum Humidity 84    
Minimum Humidity 63    
Precipitation  
Precipitation 0.00 in 0.10 in - ()
Sea Level Pressure  
Sea Level Pressure 30.01 in    
Wind  
Wind Speed 9 mph ()    
Max Wind Speed 13 mph    
Max Gust Speed -    
Visibility 7.7 miles    
Events Rain    
T = Trace of Precipitation, MM = Missing Value Source: Averaged Metar Reports

Daily Weather History Graph

Daily Weather History Graph

Search for Another Location

Airport or City:

Trip Planner

Search our weather history database for the weather conditions in past years. The results will help you decide how hot, cold, wet, or windy it might be!

Date:

Astronomy

May. 20, 2014 Rise Set
Actual Time 5:37 AM AST 6:40 PM AST
Civil Twilight 5:14 AM AST 7:03 PM AST
Nautical Twilight 4:46 AM AST 7:31 PM AST
Astronomical Twilight 4:18 AM AST 7:59 PM AST
Moon No Moon Rise 11:18 AM AST (5/20)
Length of Visible Light 13h 49m
Length of Day
13h 02m
Waning Gibbous, 60% of the Moon is Illuminated
May 20
Waning Gibbous
May 21
Last Quarter
May 28
New
Jun 5
First Quarter
Jun 13
Full

Hourly Weather History & Observations

Time (AST) Temp. Heat Index Dew Point Humidity Pressure Visibility Wind Dir Wind Speed Gust Speed Precip Events Conditions
12:00 AM 80.6 °F 85.4 °F 73.4 °F 79% 30.01 in 6.2 mi ESE 11.5 mph - N/A   Scattered Clouds
1:00 AM 80.6 °F 85.4 °F 73.4 °F 79% 29.98 in 6.2 mi ESE 12.7 mph - N/A   Scattered Clouds
2:00 AM 80 °F - 72 °F 70% 29.99 in 22 mi East 10.4 mph - -   Partly Cloudy
2:00 AM 80.6 °F 84.6 °F 71.6 °F 74% 29.98 in 6.2 mi East 10.4 mph - N/A   Scattered Clouds
3:00 AM 80.6 °F 84.6 °F 71.6 °F 74% 29.98 in 6.2 mi ESE 9.2 mph - N/A   Scattered Clouds
4:00 AM 78.8 °F - 71.6 °F 78% 29.98 in 6.2 mi ESE 9.2 mph - N/A   Partly Cloudy
5:00 AM 79 °F - 72 °F 74% 29.99 in 22 mi ESE 10.4 mph - -   Partly Cloudy
5:00 AM 78.8 °F - 71.6 °F 78% 29.98 in 6.2 mi ESE 9.2 mph - N/A   Partly Cloudy
6:00 AM 78.8 °F - 71.6 °F 78% 30.01 in 6.2 mi ESE 6.9 mph - N/A   Partly Cloudy
7:00 AM 80.6 °F 84.6 °F 71.6 °F 74% 30.01 in 6.2 mi ESE 8.1 mph - N/A   Partly Cloudy
8:00 AM 81 °F - 72 °F 69% 30.04 in 19 mi SE 11.5 mph - -   Partly Cloudy
8:00 AM 80.6 °F 85.4 °F 73.4 °F 79% 30.04 in 6.2 mi ESE 10.4 mph - N/A   Scattered Clouds
9:00 AM 82.4 °F 88.2 °F 73.4 °F 74% 30.04 in 6.2 mi ESE 10.4 mph - N/A   Scattered Clouds
10:00 AM 82.4 °F 88.2 °F 73.4 °F 74% 30.04 in 6.2 mi SE 10.4 mph - N/A   Scattered Clouds
11:00 AM 83 °F - 74 °F 68% 30.04 in 28 mi SE 11.5 mph - -   Mostly Cloudy
11:00 AM 82.4 °F 88.2 °F 73.4 °F 74% 30.04 in 6.2 mi ESE 11.5 mph - N/A   Mostly Cloudy
12:00 PM 84.2 °F 92.3 °F 75.2 °F 74% 30.04 in 6.2 mi SE 11.5 mph - N/A   Mostly Cloudy
1:00 PM 84.2 °F 90.9 °F 73.4 °F 70% 30.04 in 6.2 mi ESE 10.4 mph - N/A   Mostly Cloudy
2:00 PM 84 °F - 73 °F 63% 30.02 in 22 mi ESE 8.1 mph - -   Mostly Cloudy
2:00 PM 84.2 °F 90.9 °F 73.4 °F 70% 30.01 in 6.2 mi ESE 8.1 mph - N/A   Mostly Cloudy
3:00 PM 84.2 °F 90.9 °F 73.4 °F 70% 30.01 in 6.2 mi ESE 11.5 mph - N/A   Scattered Clouds
4:00 PM 84.2 °F 92.3 °F 75.2 °F 74% 29.98 in 6.2 mi SE 9.2 mph - N/A   Mostly Cloudy
5:00 PM 83 °F - 75 °F 71% 30.00 in 16 mi ESE 8.1 mph - - Rain Light Rain Showers
5:00 PM 82.4 °F 89.5 °F 75.2 °F 79% 29.98 in 6.2 mi ESE 8.1 mph - N/A   Scattered Clouds
6:00 PM 82.4 °F 89.5 °F 75.2 °F 79% 29.98 in 6.2 mi ESE 8.1 mph - N/A   Partly Cloudy
7:00 PM 80.6 °F 85.4 °F 73.4 °F 79% 30.01 in 6.2 mi ESE 5.8 mph - N/A   Partly Cloudy
8:00 PM 81 °F - 72 °F 68% 30.03 in 16 mi East 5.8 mph - -   Partly Cloudy
8:00 PM 80.6 °F 84.6 °F 71.6 °F 74% 30.01 in 6.2 mi East 5.8 mph - N/A   Partly Cloudy
9:00 PM 80.6 °F 85.4 °F 73.4 °F 79% 30.04 in 6.2 mi East 5.8 mph - N/A   Partly Cloudy
10:00 PM 80.6 °F 86.2 °F 75.2 °F 84% 30.04 in 6.2 mi ESE 8.1 mph - N/A   Partly Cloudy
11:00 PM 80 °F - 73 °F 75% 30.04 in 16 mi ESE 10.4 mph - -   Scattered Clouds
11:00 PM 80.6 °F 85.4 °F 73.4 °F 79% 30.04 in 6.2 mi ESE 10.4 mph - N/A   Partly Cloudy